[[{"header":{"parameterUnit":"m.s-1","parameterCategory":1,"la1":30.2991,"la2":30.254,"lo1":-89.0895,"lo2":-89.0444,"dy":0.0017,"dx":0.0017,"nx":28,"ny":28,"refTime":"2024-07-14T21:00:00:Z","depth":0,"parameterNumber":2,"parameterNumberName":"U-component_of_WINDS"},"data":[0,0,0,0,0,0,0,0,0,0,0,0,0,0,0,0,0,0,0,0,0,0,0,0,0,0,0,0,0,0,0,0,0,0,0,0,0,0,0,0,0,0,0,0,0,0,0,0,0,0,0,0,0,0,0,0,0,0,-0.4683,-0.4683,0,-0.4683,-0.4683,-0.4683,-0.47,-0.4701,-0.4701,-0.4702,-0.47,-0.4699,-0.4699,0,0,0,0,0,0,0,0,0,0,0,0,0,-0.4696,-0.4696,-0.4683,-0.4683,-0.4683,-0.4683,-0.4683,-0.4683,-0.47,-0.4701,-0.4701,-0.4702,-0.47,-0.47,-0.4699,0,0,0,0,0,0,0,0,0,0,0,0,0,-0.4693,-0.4696,-0.4683,-0.4692,-0.4692,-0.4683,-0.4683,-0.4683,-0.47,-0.4701,-0.4701,-0.4702,-0.47,-0.47,-0.4699,-0.4681,0,0,-0.4697,-0.4696,0,0,0,0,0,0,0,0,-0.4693,-0.4692,-0.469,-0.4691,-0.4692,-0.4692,-0.4687,-0.4682,-0.47,-0.4697,-0.4702,-0.4702,-0.4697,-0.4696,-0.4695,-0.4681,-0.4681,-0.4697,-0.4696,-0.4696,-0.4696,0,0,0,0,0,0,0,-0.4693,-0.4692,-0.4683,-0.469,-0.4691,-0.4695,-0.4695,-0.4686,-0.4693,-0.4697,-0.4699,-0.4698,-0.4697,-0.4695,-0.4695,-0.4681,-0.4697,-0.4696,-0.4696,-0.4695,-0.4652,-0.4651,0,0,0,0,0,0,-0.4692,-0.4692,-0.4683,-0.4683,-0.4694,-0.4694,-0.4694,-0.4691,-0.4693,-0.4694,-0.4698,-0.4699,-0.4696,-0.4696,-0.4695,-0.4674,-0.4696,-0.4695,-0.4695,-0.4652,-0.4651,-0.4651,0,0,0,0,0,0,-0.4693,-0.4691,-0.4683,-0.4688,-0.4687,-0.4693,-0.469,-0.4691,-0.4689,-0.4694,-0.4695,-0.4695,-0.4697,-0.4696,-0.4684,-0.4674,-0.4695,-0.4694,-0.4653,-0.4652,-0.4651,-0.4631,0,0,0,0,0,0,-0.4693,-0.4691,-0.4685,-0.4688,-0.4687,-0.4673,-0.4689,-0.4691,-0.4688,-0.469,-0.4691,-0.4692,-0.4697,-0.4685,-0.4684,-0.4673,-0.4694,-0.4654,-0.4653,-0.4651,-0.4633,-0.4629,-0.4627,0,0,0,0,0,-0.4693,-0.4679,-0.4685,-0.4683,-0.4679,-0.4672,-0.4671,-0.4678,-0.4687,-0.4681,-0.4683,-0.4692,-0.4675,-0.4684,-0.4682,-0.4671,-0.4655,-0.4653,-0.4651,-0.4634,-0.463,-0.4627,0,0,0,0,0,0,-0.4674,-0.468,-0.4686,-0.4672,-0.4671,-0.4675,-0.4667,-0.4674,-0.4671,-0.4672,-0.4681,-0.4681,-0.4668,-0.4669,-0.4678,-0.4654,-0.4667,-0.4664,-0.4654,-0.465,-0.4647,-0.4647,-0.4693,0,0,0,0,0,-0.4669,-0.4663,-0.4668,-0.4655,-0.4655,-0.4661,-0.4658,-0.4663,-0.4663,-0.4663,-0.4665,-0.4663,-0.4658,-0.4654,-0.465,-0.4633,-0.4633,-0.4625,-0.4622,-0.4619,-0.4617,-0.4608,-0.4604,-0.4645,-0.4645,-0.4645,0,0,-0.4656,-0.4659,-0.4654,-0.4651,-0.4652,-0.4645,-0.466,-0.4653,-0.4648,-0.4661,-0.4651,-0.4652,-0.4651,-0.4637,-0.4631,-0.4637,-0.4606,-0.4617,-0.4615,-0.4614,-0.4606,-0.4602,-0.4599,-0.4644,-0.4644,-0.4644,0,0,-0.4631,-0.4632,-0.4622,-0.4622,-0.4622,-0.4626,-0.4624,-0.4626,-0.4628,-0.4617,-0.4627,-0.4621,-0.4612,-0.4611,-0.4609,-0.4584,-0.4591,-0.4582,-0.4566,-0.4557,-0.4554,-0.4551,-0.4541,-0.4538,-0.458,-0.458,-0.458,0,-0.4616,-0.4607,-0.4615,-0.4607,-0.4605,-0.4618,-0.4607,-0.4606,-0.4605,-0.4603,-0.4611,-0.4599,-0.4599,-0.4585,-0.4579,-0.4577,-0.4574,-0.4581,-0.4554,-0.4551,-0.4548,-0.4539,-0.4536,-0.4579,-0.4579,-0.4579,-0.4579,0,-0.4588,-0.4581,-0.4573,-0.4571,-0.4569,-0.4559,-0.4566,-0.4562,-0.4568,-0.4571,-0.456,-0.4561,-0.4556,-0.4554,-0.4559,-0.454,-0.4544,-0.4552,-0.4565,-0.4543,-0.4535,-0.4531,-0.4577,-0.4577,-0.4578,-0.4578,0,0,-0.455,-0.4554,-0.455,-0.455,-0.4551,-0.4546,-0.4537,-0.4533,-0.453,-0.4528,-0.452,-0.4512,-0.452,-0.4518,-0.4524,-0.4516,-0.4495,-0.4525,-0.4526,-0.4519,-0.4473,-0.4467,-0.4463,-0.45,-0.45,-0.4499,-0.4473,0,-0.4525,-0.451,-0.4517,-0.4501,-0.4495,-0.4507,-0.4499,-0.4499,-0.4502,-0.4497,-0.45,-0.4494,-0.4505,-0.4504,-0.4497,-0.4499,-0.4486,-0.4501,-0.4492,-0.4492,-0.4492,-0.4458,-0.4451,-0.4427,-0.447,-0.447,-0.4469,0,-0.4493,-0.4491,-0.4474,-0.4477,-0.4475,-0.4467,-0.4464,-0.446,-0.4459,-0.4462,-0.446,-0.4467,-0.4458,-0.4471,-0.4458,-0.4469,-0.4466,-0.4466,-0.4466,-0.4464,-0.4479,-0.4456,-0.4419,-0.4415,-0.4464,-0.4465,-0.4465,0,-0.4467,-0.4459,-0.4448,-0.4448,-0.4451,-0.4445,-0.4446,-0.4447,-0.4444,-0.4441,-0.4439,-0.4435,-0.4433,-0.443,-0.4436,-0.4445,-0.4422,-0.4435,-0.4423,-0.4423,-0.4417,-0.4417,-0.4379,-0.4416,-0.4416,-0.4416,-0.4416,0,-0.4437,-0.4427,-0.4437,-0.443,-0.4418,-0.4427,-0.4414,-0.4417,-0.4417,-0.441,-0.4421,-0.4414,-0.4423,-0.4417,-0.4422,-0.441,-0.4409,-0.441,-0.4412,-0.4409,-0.4409,-0.4407,-0.4408,-0.4415,-0.4416,-0.4416,-0.4416,0,-0.4405,-0.4412,-0.44,-0.4404,-0.4405,-0.4396,-0.4399,-0.4392,-0.4396,-0.4388,-0.4386,-0.4392,-0.4386,-0.4392,-0.4385,-0.4389,-0.4373,-0.4377,-0.4373,-0.4374,-0.4361,-0.4362,-0.4319,-0.4314,-0.4355,-0.4355,-0.4354,0,-0.4386,-0.4378,-0.4381,-0.4378,-0.4378,-0.4372,-0.437,-0.4378,-0.4375,-0.4374,-0.4367,-0.4362,-0.4358,-0.4348,-0.4351,-0.4346,-0.435,-0.4335,-0.4349,-0.4347,-0.4349,-0.4349,-0.4348,-0.4332,-0.4332,-0.4331,-0.4331,0,-0.4351,-0.4355,-0.4351,-0.4347,-0.4344,-0.4342,-0.4341,-0.4337,-0.4346,-0.4341,-0.4335,-0.4332,-0.4327,-0.4321,-0.4318,-0.4318,-0.4326,-0.4327,-0.4324,-0.4321,-0.4319,-0.4319,-0.4365,-0.4328,-0.4328,-0.4328,-0.4328,-0.4329,-0.4324,-0.4318,-0.4319,-0.4314,-0.4314,-0.4312,-0.4306,-0.431,-0.4305,-0.4301,-0.4306,-0.4299,-0.4299,-0.4295,-0.4294,-0.4288,-0.4294,-0.429,-0.4289,-0.4287,-0.4285,-0.432,-0.4288,-0.4288,-0.4288,-0.4288,-0.4288,0,-0.4289,-0.4291,-0.4286,-0.4284,-0.428,-0.4289,-0.4288,-0.4283,-0.4277,-0.4276,-0.4273,-0.4266,-0.426,-0.4263,-0.4259,-0.4253,-0.4257,-0.4252,-0.4252,-0.4252,-0.428,-0.4283,-0.4249,-0.4249,-0.4249,-0.4249,-0.4249,-0.4249,-0.4271,-0.426,-0.4263,-0.4253,-0.4254,-0.4247,-0.4246,-0.4244,-0.4244,-0.4236,-0.4231,-0.4234,-0.4235,-0.423,-0.4226,-0.4227,-0.4224,-0.4218,-0.422,-0.4246,-0.425,-0.4254,-0.4256,-0.4217,-0.4217,-0.4192,-0.4192,-0.4192]},{"header":{"parameterUnit":"m.s-1","parameterCategory":1,"la1":30.2991,"la2":30.254,"lo1":-89.0895,"lo2":-89.0444,"dy":0.0017,"dx":0.0017,"nx":28,"ny":28,"refTime":"2024-07-14T21:00:00:Z","depth":0,"parameterNumber":3,"parameterNumberName":"V-component_of_WINDS"},"data":[0,0,0,0,0,0,0,0,0,0,0,0,0,0,0,0,0,0,0,0,0,0,0,0,0,0,0,0,0,0,0,0,0,0,0,0,0,0,0,0,0,0,0,0,0,0,0,0,0,0,0,0,0,0,0,0,0,0,2.7675,2.7674,0,2.7633,2.7632,2.7632,2.7625,2.7625,2.7626,2.7626,2.7579,2.7577,2.7575,0,0,0,0,0,0,0,0,0,0,0,0,0,2.7743,2.7741,2.7675,2.7674,2.7674,2.7633,2.7632,2.7632,2.7625,2.7625,2.7626,2.7626,2.7579,2.7577,2.7575,0,0,0,0,0,0,0,0,0,0,0,0,0,2.7708,2.7741,2.7675,2.7665,2.7664,2.7633,2.7632,2.7632,2.7625,2.7625,2.7626,2.7626,2.758,2.7577,2.7575,2.7549,0,0,2.7568,2.7567,0,0,0,0,0,0,0,0,2.771,2.7706,2.7667,2.7666,2.7664,2.7635,2.7639,2.7604,2.7625,2.7639,2.7626,2.7627,2.7596,2.7593,2.7584,2.7547,2.7545,2.7567,2.7566,2.7565,2.7564,0,0,0,0,0,0,0,2.7712,2.7707,2.7658,2.7667,2.7665,2.7661,2.7657,2.7632,2.7615,2.7638,2.7638,2.7633,2.7596,2.7586,2.7582,2.7544,2.7568,2.7565,2.7564,2.7563,2.7482,2.7481,0,0,0,0,0,0,2.7717,2.7709,2.7659,2.7657,2.7689,2.766,2.7655,2.7644,2.7616,2.7612,2.7633,2.7633,2.759,2.7585,2.7581,2.7547,2.7565,2.7563,2.7561,2.7482,2.7481,2.7481,0,0,0,0,0,0,2.7719,2.7713,2.7661,2.7683,2.7676,2.7658,2.7645,2.7642,2.7633,2.7611,2.7608,2.7626,2.759,2.7584,2.7557,2.7545,2.7562,2.7559,2.7483,2.7482,2.7481,2.748,0,0,0,0,0,0,2.7721,2.7713,2.7705,2.7683,2.7675,2.764,2.7645,2.7641,2.7629,2.7629,2.7604,2.7601,2.759,2.756,2.7554,2.7542,2.7558,2.7484,2.7483,2.7481,2.7481,2.7479,2.7478,0,0,0,0,0,2.7723,2.7706,2.7704,2.7698,2.7664,2.7639,2.7634,2.7624,2.7628,2.7618,2.7604,2.7601,2.7548,2.7558,2.7551,2.7538,2.7485,2.7483,2.7481,2.7482,2.748,2.7478,0,0,0,0,0,0,2.7726,2.7703,2.7701,2.7676,2.766,2.7638,2.7625,2.7622,2.7603,2.7603,2.7589,2.7584,2.7557,2.7545,2.7556,2.751,2.7516,2.7513,2.7519,2.7517,2.7515,2.7518,2.7556,0,0,0,0,0,2.7724,2.7707,2.7687,2.7667,2.7659,2.7644,2.7632,2.7626,2.7607,2.76,2.7584,2.7565,2.7543,2.7529,2.7509,2.748,2.7473,2.7467,2.7465,2.7464,2.7461,2.7442,2.7439,2.7475,2.7475,2.7475,0,0,2.7719,2.7704,2.7694,2.7667,2.7654,2.7634,2.7638,2.7618,2.7603,2.7596,2.7569,2.7557,2.7534,2.7506,2.7492,2.7495,2.7449,2.7462,2.7461,2.7458,2.744,2.7437,2.7434,2.7474,2.7474,2.7475,0,0,2.77,2.7688,2.7669,2.7655,2.7635,2.7625,2.762,2.7598,2.759,2.7564,2.7558,2.7539,2.7503,2.7486,2.7473,2.7447,2.7442,2.744,2.743,2.7412,2.7409,2.7407,2.7395,2.7391,2.7438,2.7438,2.7438,0,2.7696,2.7668,2.7659,2.764,2.7627,2.7621,2.7601,2.7587,2.7561,2.7551,2.7555,2.7508,2.7493,2.7459,2.7453,2.7443,2.7435,2.7443,2.7411,2.7408,2.7405,2.7394,2.739,2.7437,2.7437,2.7438,2.7438,0,2.7663,2.7644,2.7631,2.7607,2.7593,2.7573,2.7558,2.7545,2.7539,2.7528,2.7499,2.748,2.7455,2.7447,2.7441,2.7411,2.7413,2.7414,2.742,2.7402,2.7391,2.7387,2.7437,2.7437,2.7437,2.7437,0,0,2.7645,2.7615,2.761,2.7598,2.7575,2.7559,2.7538,2.7514,2.7502,2.7483,2.7463,2.7432,2.7433,2.7418,2.741,2.7394,2.7371,2.7396,2.7395,2.7391,2.7335,2.7333,2.7329,2.7369,2.7368,2.7367,2.7336,0,2.7622,2.7585,2.7576,2.7544,2.7525,2.7518,2.7499,2.7482,2.747,2.7451,2.7437,2.7415,2.7418,2.7409,2.7393,2.7378,2.736,2.738,2.7348,2.7347,2.7352,2.7323,2.7322,2.7294,2.7332,2.7331,2.7331,0,2.759,2.7572,2.7538,2.7516,2.7507,2.7491,2.7467,2.745,2.7428,2.7421,2.7404,2.7397,2.7372,2.738,2.7343,2.7357,2.7343,2.7334,2.7332,2.7327,2.7337,2.7316,2.7285,2.728,2.7324,2.7325,2.7325,0,2.7578,2.7545,2.752,2.751,2.7484,2.7472,2.746,2.7439,2.7425,2.7404,2.7394,2.737,2.7356,2.7336,2.7322,2.733,2.7286,2.7293,2.7277,2.7277,2.7267,2.7268,2.7231,2.7261,2.7261,2.7261,2.7261,0,2.7553,2.7532,2.7514,2.7498,2.7474,2.7462,2.7438,2.7425,2.7407,2.7387,2.738,2.7361,2.7344,2.7322,2.7311,2.7281,2.7276,2.7267,2.7264,2.7267,2.7267,2.7256,2.7257,2.726,2.726,2.7261,2.7261,0,2.7534,2.7522,2.7494,2.7471,2.7465,2.7448,2.7427,2.741,2.7399,2.7374,2.7367,2.7347,2.7321,2.7305,2.7272,2.7264,2.723,2.7229,2.7238,2.7236,2.722,2.7221,2.7173,2.7166,2.7203,2.7202,2.7202,0,2.7518,2.7502,2.7478,2.7465,2.7453,2.7432,2.7417,2.7405,2.7389,2.7363,2.7349,2.7323,2.7301,2.7259,2.724,2.7214,2.7211,2.7196,2.7206,2.7209,2.7208,2.7208,2.7205,2.7193,2.7193,2.7193,2.7193,0,2.749,2.7485,2.7465,2.7442,2.7426,2.7407,2.7388,2.7377,2.7361,2.7344,2.7317,2.7301,2.7266,2.7239,2.7211,2.7196,2.719,2.719,2.7184,2.7186,2.7191,2.7186,2.7231,2.719,2.7191,2.7191,2.7191,2.7191,2.7471,2.7456,2.7436,2.7414,2.7398,2.7381,2.7363,2.7349,2.7328,2.73,2.7293,2.7265,2.7242,2.7204,2.7188,2.7164,2.7166,2.7159,2.7156,2.7154,2.7153,2.7196,2.7159,2.7159,2.7159,2.7159,2.7159,0,2.7442,2.7428,2.7408,2.7382,2.7364,2.7362,2.734,2.7324,2.73,2.728,2.7259,2.7227,2.72,2.718,2.7152,2.7136,2.7133,2.7129,2.7129,2.7125,2.7154,2.7161,2.7132,2.7132,2.7132,2.7132,2.7132,2.7132,2.7424,2.7397,2.7389,2.7353,2.7339,2.7313,2.73,2.7283,2.7267,2.7232,2.721,2.7198,2.7176,2.7146,2.7121,2.7115,2.7104,2.71,2.7094,2.7121,2.7123,2.7126,2.7132,2.7099,2.7099,2.7067,2.7067,2.7066]}]]